Location: Passau
(48.5830°N, 13.4830°E)
Time: 06:34:32
(UTC+02:00)

Vanguard 1 - Pass Details

Date: 29 July 2021
Orbit: 652 x 3831 km, 34.3° (Epoch: 16 September)

Event Time Altitude Azimuth Distance (km) Brightness Sun altitude
Rises 14:09:02 0° 242° (WSW) 3,530 13.3 57.9°
Reaches altitude 10° 14:11:26 10° 231° (SW) 2,833 13.1 57.8°
Maximum altitude 14:17:26 31° 171° (S) 2,272 13.0 57.3°
Drops below altitude 10° 14:27:10 10° 115° (ESE) 4,674 13.6 56.5°
Sets 14:32:29 0° 108° (ESE) 6,253 14.1 56.0°
